When you browse on this site, cookies collect data to enhance your experience and personalize the content and advertising you see.
Visit our Privacy Policy to learn more. By continuing to use the site, you agree to this use of cookies and data.
  • In Lithuania
  • List of Countries
  • For 7 days
  • Water Temperature
  • Weather Map
  • Weather Widgets
  • user-avatar
    Login

    Hourly Weather Albany

    Today, 15 September, Sunday

    Time Temperature Precipitation Wind Pressure Humidity
    00:00 +14°C° 0 mm 2 mps 764 mmHg 81%
    01:00 +13°C° 0 mm 3 mps 763 mmHg 79%
    02:00 +13°C° 0 mm 3 mps 763 mmHg 78%
    03:00 +13°C° 0 mm 3 mps 764 mmHg 77%
    04:00 +13°C° 0 mm 2 mps 764 mmHg 76%
    05:00 +13°C° 0 mm 2 mps 764 mmHg 75%
    06:00 +13°C° 0 mm 2 mps 764 mmHg 76%
    07:00 +14°C° 0 mm 2 mps 765 mmHg 76%
    08:00 +14°C° 0 mm 1 mps 765 mmHg 77%
    09:00 +15°C° 0.1 mm 2 mps 765 mmHg 74%
    10:00 +16°C° 0.1 mm 3 mps 765 mmHg 72%
    11:00 +16°C° 0.1 mm 3 mps 765 mmHg 70%
    12:00 +16°C° 0.1 mm 3 mps 765 mmHg 69%
    13:00 +15°C° 0.1 mm 4 mps 765 mmHg 69%
    14:00 +14°C° 0 mm 3 mps 765 mmHg 68%
    15:00 +14°C° 0 mm 3 mps 765 mmHg 69%
    16:00 +14°C° 0 mm 3 mps 765 mmHg 69%
    17:00 +13°C° 0 mm 3 mps 765 mmHg 70%
    18:00 +13°C° 0 mm 3 mps 765 mmHg 72%
    19:00 +12°C° 0 mm 3 mps 766 mmHg 73%
    20:00 +12°C° 0 mm 3 mps 766 mmHg 75%
    21:00 +12°C° 0 mm 3 mps 766 mmHg 77%
    22:00 +12°C° 0 mm 3 mps 766 mmHg 78%
    23:00 +12°C° 0 mm 4 mps 766 mmHg 80%

    Tomorrow, 16 September, Monday

    Time Temperature Precipitation Wind Pressure Humidity
    00:00 +11°C° 0 mm 4 mps 766 mmHg 83%
    01:00 +11°C° 0 mm 4 mps 766 mmHg 85%
    02:00 +10°C° 0 mm 4 mps 765 mmHg 88%
    03:00 +10°C° 0 mm 3 mps 765 mmHg 89%
    04:00 +10°C° 0 mm 3 mps 765 mmHg 90%
    05:00 +9°C° 0 mm 3 mps 765 mmHg 91%
    06:00 +10°C° 0 mm 4 mps 765 mmHg 88%
    07:00 +11°C° 0 mm 4 mps 765 mmHg 86%
    08:00 +12°C° 0 mm 5 mps 765 mmHg 83%
    09:00 +14°C° 0 mm 5 mps 765 mmHg 77%
    10:00 +15°C° 0 mm 5 mps 764 mmHg 71%
    11:00 +17°C° 0 mm 5 mps 764 mmHg 65%
    12:00 +17°C° 0 mm 5 mps 763 mmHg 66%
    13:00 +18°C° 0 mm 4 mps 763 mmHg 66%
    14:00 +18°C° 0 mm 4 mps 762 mmHg 67%
    15:00 +17°C° 0 mm 5 mps 762 mmHg 70%
    16:00 +16°C° 0 mm 5 mps 761 mmHg 73%
    17:00 +15°C° 0 mm 5 mps 761 mmHg 76%
    18:00 +15°C° 0 mm 5 mps 761 mmHg 76%
    19:00 +15°C° 0 mm 5 mps 761 mmHg 76%
    20:00 +14°C° 0 mm 5 mps 761 mmHg 76%
    21:00 +14°C° 0 mm 5 mps 761 mmHg 80%
    22:00 +13°C° 0 mm 5 mps 760 mmHg 84%
    23:00 +12°C° 0 mm 4 mps 760 mmHg 87%

    Day after tomorrow, 17 September, Tuesday

    Time Temperature Precipitation Wind Pressure Humidity
    00:00 +12°C° 0 mm 4 mps 759 mmHg 90%
    01:00 +11°C° 0 mm 3 mps 759 mmHg 92%
    02:00 +11°C° 0 mm 3 mps 758 mmHg 94%
    03:00 +11°C° 0 mm 3 mps 758 mmHg 93%
    04:00 +12°C° 0 mm 2 mps 757 mmHg 93%
    05:00 +10°C° 0 mm 2 mps 757 mmHg 92%
    06:00 +12°C° 0 mm 2 mps 757 mmHg 90%
    07:00 +13°C° 0 mm 3 mps 757 mmHg 87%
    08:00 +14°C° 0 mm 3 mps 757 mmHg 85%
    09:00 +15°C° 0 mm 4 mps 757 mmHg 80%
    10:00 +18°C° 0 mm 4 mps 757 mmHg 75%
    11:00 +20°C° 0 mm 4 mps 757 mmHg 71%
    12:00 +20°C° 0 mm 5 mps 756 mmHg 72%
    13:00 +20°C° 0 mm 5 mps 756 mmHg 74%
    14:00 +19°C° 0 mm 6 mps 755 mmHg 76%
    15:00 +19°C° 0 mm 6 mps 755 mmHg 76%
    16:00 +17°C° 0 mm 6 mps 756 mmHg 76%
    17:00 +16°C° 0 mm 5 mps 756 mmHg 76%
    18:00 +15°C° 0 mm 5 mps 756 mmHg 78%
    19:00 +14°C° 0 mm 5 mps 757 mmHg 80%
    20:00 +13°C° 0 mm 5 mps 757 mmHg 82%
    21:00 +13°C° 0 mm 5 mps 757 mmHg 84%
    22:00 +12°C° 0 mm 5 mps 756 mmHg 87%
    23:00 +10°C° 0 mm 5 mps 756 mmHg 89%

    18 September, Wednesday

    Time Temperature Precipitation Wind Pressure Humidity
    00:00 +10°C° 0 mm 5 mps 756 mmHg 90%
    01:00 +10°C° 0 mm 5 mps 755 mmHg 90%
    02:00 +10°C° 0 mm 5 mps 755 mmHg 91%
    03:00 +10°C° 0 mm 5 mps 755 mmHg 91%
    04:00 +10°C° 0 mm 5 mps 754 mmHg 91%
    05:00 +11°C° 0 mm 6 mps 754 mmHg 92%
    06:00 +13°C° 0 mm 6 mps 753 mmHg 87%
    07:00 +14°C° 0 mm 7 mps 753 mmHg 83%
    08:00 +15°C° 0 mm 7 mps 753 mmHg 79%
    09:00 +16°C° 0.1 mm 8 mps 752 mmHg 76%
    10:00 +17°C° 0.1 mm 8 mps 751 mmHg 72%
    11:00 +17°C° 0.1 mm 9 mps 751 mmHg 69%
    12:00 +17°C° 0.1 mm 9 mps 750 mmHg 69%
    13:00 +16°C° 0.1 mm 10 mps 749 mmHg 68%
    14:00 +16°C° 0.1 mm 11 mps 748 mmHg 68%
    15:00 +14°C° 2.1 mm 11 mps 749 mmHg 75%
    16:00 +12°C° 2.1 mm 11 mps 750 mmHg 83%
    17:00 +11°C° 2.1 mm 11 mps 750 mmHg 90%
    18:00 +9°C° 0.2 mm 10 mps 751 mmHg 87%
    19:00 +9°C° 0.2 mm 10 mps 752 mmHg 84%
    20:00 +8°C° 0.2 mm 10 mps 753 mmHg 81%
    21:00 +7°C° 0.2 mm 10 mps 754 mmHg 81%
    22:00 +7°C° 0.2 mm 10 mps 754 mmHg 82%
    23:00 +7°C° 0.2 mm 9 mps 754 mmHg 82%

    19 September, Thursday

    Time Temperature Precipitation Wind Pressure Humidity
    00:00 +6°C° 0.2 mm 10 mps 754 mmHg 82%
    01:00 +6°C° 0.2 mm 10 mps 755 mmHg 81%
    02:00 +6°C° 0.2 mm 10 mps 755 mmHg 80%
    03:00 +6°C° 0.2 mm 10 mps 756 mmHg 80%
    04:00 +6°C° 0.2 mm 9 mps 756 mmHg 81%
    05:00 +5°C° 0.2 mm 9 mps 757 mmHg 81%
    06:00 +6°C° 0.1 mm 9 mps 758 mmHg 78%
    07:00 +7°C° 0.1 mm 8 mps 758 mmHg 75%
    08:00 +7°C° 0.1 mm 8 mps 759 mmHg 73%
    09:00 +9°C° 0.2 mm 8 mps 759 mmHg 70%
    10:00 +10°C° 0.2 mm 9 mps 759 mmHg 67%
    11:00 +10°C° 0.2 mm 9 mps 760 mmHg 64%
    12:00 +10°C° 0.2 mm 9 mps 760 mmHg 65%
    13:00 +10°C° 0.2 mm 9 mps 760 mmHg 65%
    14:00 +10°C° 0.2 mm 8 mps 760 mmHg 66%
    15:00 +10°C° 0.2 mm 8 mps 760 mmHg 69%
    16:00 +10°C° 0.2 mm 7 mps 761 mmHg 72%
    17:00 +9°C° 0.2 mm 7 mps 761 mmHg 74%
    18:00 +8°C° 0.2 mm 6 mps 762 mmHg 77%
    19:00 +8°C° 0.2 mm 6 mps 762 mmHg 79%
    20:00 +7°C° 0.2 mm 5 mps 763 mmHg 82%
    21:00 +7°C° 0.1 mm 5 mps 763 mmHg 83%
    22:00 +7°C° 0.1 mm 5 mps 763 mmHg 84%
    23:00 +7°C° 0.1 mm 5 mps 763 mmHg 84%

    20 September, Friday

    Time Temperature Precipitation Wind Pressure Humidity
    00:00 +7°C° 0.1 mm 5 mps 763 mmHg 85%
    01:00 +7°C° 0.1 mm 5 mps 763 mmHg 86%
    02:00 +7°C° 0.1 mm 5 mps 763 mmHg 87%
    03:00 +7°C° 0.1 mm 5 mps 763 mmHg 87%
    04:00 +7°C° 0.1 mm 4 mps 763 mmHg 87%
    05:00 +7°C° 0.1 mm 4 mps 763 mmHg 87%
    06:00 +7°C° 0.2 mm 4 mps 763 mmHg 87%
    07:00 +8°C° 0.2 mm 5 mps 764 mmHg 87%
    08:00 +8°C° 0.2 mm 5 mps 764 mmHg 87%
    09:00 +9°C° 0.2 mm 5 mps 764 mmHg 82%
    10:00 +10°C° 0.2 mm 6 mps 764 mmHg 77%
    11:00 +11°C° 0.2 mm 6 mps 765 mmHg 72%
    12:00 +11°C° 0.1 mm 6 mps 764 mmHg 72%
    13:00 +11°C° 0.1 mm 6 mps 764 mmHg 72%
    14:00 +11°C° 0.1 mm 6 mps 764 mmHg 72%
    15:00 +11°C° 0.1 mm 6 mps 764 mmHg 71%
    16:00 +12°C° 0.1 mm 5 mps 765 mmHg 71%
    17:00 +12°C° 0.1 mm 5 mps 765 mmHg 70%
    18:00 +10°C° 0.1 mm 5 mps 765 mmHg 72%
    19:00 +10°C° 0.1 mm 4 mps 766 mmHg 73%
    20:00 +8°C° 0.1 mm 4 mps 766 mmHg 75%
    21:00 +8°C° 0 mm 4 mps 766 mmHg 73%
    22:00 +9°C° 0 mm 3 mps 766 mmHg 72%
    23:00 +10°C° 0 mm 3 mps 766 mmHg 70%
    Show more